Simultaneous Nadir Overpasses (SNOs) Predictions

Prediction of SNOs between AQUA and METOP-A Satellite Orbit:

Table of predicted SNOs for the next 14.0 days since TLE Epoch: 3/30/2017
Index Date (AQUA) Time (AQUA) Lat,Lon (AQUA) SZA (AQUA ) Date (METOP-A) Time (METOP-A) Lat,Lon (METOP-A) SZA (METOP-A ) Distance(km) Time Diff (sec)
1 04/02/2017 14:23:21 -73.87, 138.38 111.26 04/02/2017 14:22:38 -73.85, 138.33 111.27 2.78 43
2 04/02/2017 15:12:48 73.93, -54.11 68.80 04/02/2017 15:13:15 73.92, -54.17 68.79 2.00 27
3 04/05/2017 09:57:31 -73.87,-155.18 112.33 04/05/2017 09:56:59 -73.86,-155.25 112.34 3.14 32
4 04/05/2017 10:46:59 73.94, 12.32 67.73 04/05/2017 10:47:37 73.92, 12.24 67.71 3.05 38
5 04/08/2017 05:31:42 -73.90, -88.77 113.38 04/08/2017 05:31:20 -73.91, -88.72 113.36 1.98 22
6 04/08/2017 06:21:10 73.96, 78.72 66.69 04/08/2017 06:21:58 73.97, 78.76 66.69 1.59 48
7 04/11/2017 00:16:18 73.48, 170.95 65.15 04/11/2017 00:15:09 73.44, 169.27 65.18 53.45 69
8 04/11/2017 01:05:52 -73.88, -22.29 114.44 04/11/2017 01:05:42 -73.91, -22.32 114.41 2.90 10
9 04/11/2017 01:55:20 73.95, 145.20 65.63 04/11/2017 01:56:20 73.97, 145.16 65.64 2.18 60
10 04/13/2017 19:50:34 73.85,-123.39 64.51 04/13/2017 19:49:22 73.83,-123.42 64.51 1.97 72
11 04/13/2017 20:40:01 -73.89, 44.16 115.46 04/13/2017 20:40:03 -73.90, 44.08 115.44 3.20 2




NCC Satellite Simultaneous Nadir Overpasses (SNOs) Prediction Service
